W4MSI Weather Reports


time (UTC)temp
F
wind
direction
speed
knots
gust
knots
rain 1hr
in
rain 24hr
in
rain mn
in
humidity
%
barometer
mb
20260504081708 55 206 7.0 8.7 0.00 0.00 0.00 63 1011.6
20260504081205 55 216 6.1 7.0 0.00 0.00 0.00 63 1011.9
20260504080701 55 203 2.6 5.2 0.00 0.00 0.00 63 1011.9
20260504080157 55 207 3.5 3.5 0.00 0.00 0.00 63 1012.0
20260504070125 55 192 6.1 7.8 0.00 0.00 0.00 61 1012.5
20260504050514 58 200 3.5 3.5 0.00 0.00 0.00 55 1013.3
20260504050011 58 200 6.1 7.8 0.00 0.00 0.00 54 1013.5
20260504045508 58 220 2.6 2.6 0.00 0.00 0.00 55 1013.7
20260504045003 58 220 6.1 11.3 0.00 0.00 0.00 55 1013.8
20260504044501 58 209 1.7 2.6 0.00 0.00 0.00 55 1013.8
20260504043958 58 223 3.5 6.1 0.00 0.00 0.00 55 1013.9
20260504043455 58 219 2.6 3.5 0.00 0.00 0.00 54 1013.8
20260504042952 58 201 4.3 6.1 0.00 0.00 0.00 54 1013.9
20260504042448 58 214 4.3 6.1 0.00 0.00 0.00 54 1014.0
20260504041945 58 192 1.7 2.6 0.00 0.00 0.00 54 1013.9
20260504041441 58 237 2.6 2.6 0.00 0.00 0.00 54 1013.9
20260504040937 58 199 7.0 7.8 0.00 0.00 0.00 54 1014.0
20260504040435 58 193 3.5 3.5 0.00 0.00 0.00 54 1014.1
20260504035931 58 182 1.7 2.6 0.00 0.00 0.00 55 1014.1
20260504035429 57 195 3.5 5.2 0.00 0.00 0.00 55 1013.9
20260504034925 57 213 2.6 3.5 0.00 0.00 0.00 55 1014.1
20260504034423 57 196 3.5 5.2 0.00 0.00 0.00 55 1014.2
20260504033920 57 211 0.9 1.7 0.00 0.00 0.00 56 1014.1
20260504033418 57 194 1.7 1.7 0.00 0.00 0.00 56 1014.3
20260504032914 58 218 0.9 0.9 0.00 0.00 0.00 57 1014.4
20260504032411 58 193 1.7 1.7 0.00 0.00 0.00 54 1014.5
20260504031908 58 203 0.0 0.0 0.00 0.00 0.00 55 1014.4
20260504031405 58 209 0.9 0.9 0.00 0.00 0.00 54 1014.5
20260504030901 59 209 1.7 1.7 0.00 0.00 0.00 53 1014.7
20260504030359 59 195 1.7 2.6 0.00 0.00 0.00 52 1014.6
20260504025854 60 217 0.9 1.7 0.00 0.00 0.00 51 1014.3
20260504025352 60 238 1.7 2.6 0.00 0.00 0.00 50 1014.1
20260504024848 60 193 1.7 1.7 0.00 0.00 0.00 50 1014.2
20260504024345 60 204 5.2 6.1 0.00 0.00 0.00 50 1013.9
20260504023842 60 197 5.2 6.1 0.00 0.00 0.00 49 1013.8
20260504023339 60 206 5.2 6.1 0.00 0.00 0.00 49 1013.8
20260504022834 61 192 2.6 3.5 0.00 0.00 0.00 48 1013.6
20260504022331 61 220 3.5 5.2 0.00 0.00 0.00 48 1013.5
20260504021828 61 211 7.0 8.7 0.00 0.00 0.00 48 1013.3
20260504021325 61 221 8.7 12.2 0.00 0.00 0.00 48 1013.4
20260504020822 61 205 9.6 11.3 0.00 0.00 0.00 48 1013.3
20260504020319 61 206 6.1 7.8 0.00 0.00 0.00 48 1013.5
20260504015815 61 200 7.8 8.7 0.00 0.00 0.00 47 1013.4
20260504015311 61 188 4.3 5.2 0.00 0.00 0.00 48 1013.0
20260504014808 61 174 7.8 8.7 0.00 0.00 0.00 48 1013.5
20260504014303 61 209 3.5 3.5 0.00 0.00 0.00 48 1013.6
20260504013801 60 178 6.1 7.0 0.00 0.00 0.00 49 1013.6
20260504013259 61 200 5.2 6.1 0.00 0.00 0.00 49 1013.8
20260504012755 61 219 4.3 5.2 0.00 0.00 0.00 49 1013.7
20260504012254 61 202 3.5 3.5 0.00 0.00 0.00 49 1013.7
20260504011750 61 188 4.3 5.2 0.00 0.00 0.00 48 1013.8
20260504011247 61 200 4.3 6.1 0.00 0.00 0.00 48 1013.9
20260504010743 61 205 3.5 6.1 0.00 0.00 0.00 48 1014.1
20260504010238 61 203 2.6 2.6 0.00 0.00 0.00 48 1014.1
20260504005735 62 212 2.6 3.5 0.00 0.00 0.00 48 1014.0
20260504005233 62 210 3.5 5.2 0.00 0.00 0.00 47 1014.0
20260504004730 62 191 2.6 2.6 0.00 0.00 0.00 47 1013.9
20260504004227 62 205 3.5 3.5 0.00 0.00 0.00 47 1014.0
20260504003723 62 203 3.5 3.5 0.00 0.00 0.00 47 1014.0
20260504003221 63 214 5.2 7.0 0.00 0.00 0.00 46 1013.9
20260504002717 63 215 3.5 3.5 0.00 0.00 0.00 46 1013.7
20260504002214 63 227 2.6 2.6 0.00 0.00 0.00 46 1013.5
20260504001712 63 161 4.3 7.0 0.00 0.00 0.00 45 1013.8
20260504001209 64 205 4.3 5.2 0.00 0.00 0.00 45 1013.8
20260504000705 64 194 5.2 6.1 0.00 0.00 0.00 44 1013.8
20260504000204 64 207 5.2 5.2 0.00 0.00 0.00 43 1013.9
20260503235701 64 200 3.5 3.5 0.00 0.00 0.00 43 1013.9
20260503235157 64 205 6.1 7.0 0.00 0.00 0.00 43 1014.0
20260503234655 65 218 2.6 2.6 0.00 0.00 0.00 43 1014.1
20260503234153 65 252 5.2 7.8 0.00 0.00 0.00 42 1014.0
20260503233649 65 221 5.2 6.1 0.00 0.00 0.00 41 1014.2
20260503233145 66 212 3.5 5.2 0.00 0.00 0.00 41 1014.2
20260503232642 66 200 6.1 7.0 0.00 0.00 0.00 41 1014.1
20260503232140 66 221 3.5 3.5 0.00 0.00 0.00 41 1014.3
20260503231638 66 192 4.3 5.2 0.00 0.00 0.00 40 1014.5
20260503231134 66 184 5.2 7.0 0.00 0.00 0.00 39 1014.5
20260503230631 66 243 3.5 5.2 0.00 0.00 0.00 40 1014.4
20260503230128 66 173 3.5 5.2 0.00 0.00 0.00 41 1014.4
20260503225626 66 203 8.7 8.7 0.00 0.00 0.00 39 1014.7
20260503225125 66 212 4.3 6.1 0.00 0.00 0.00 39 1014.9
20260503224623 66 189 5.2 7.0 0.00 0.00 0.00 38 1014.9
20260503224121 66 200 6.1 7.0 0.00 0.00 0.00 39 1014.9
20260503223618 66 203 5.2 7.0 0.00 0.00 0.00 39 1014.8
20260503223114 67 205 3.5 3.5 0.00 0.00 0.00 39 1014.9
20260503222612 66 216 2.6 3.5 0.00 0.00 0.00 41 1015.1
20260503222110 66 190 4.3 5.2 0.00 0.00 0.00 40 1015.4
20260503221608 67 270 5.2 6.1 0.00 0.00 0.00 37 1015.5
20260503221105 67 209 2.6 2.6 0.00 0.00 0.00 40 1015.4
20260503220601 67 212 2.6 5.2 0.00 0.00 0.00 40 1015.5
20260503220058 66 186 4.3 7.0 0.00 0.00 0.00 40 1015.7
20260503215555 67 196 9.6 11.3 0.00 0.00 0.00 37 1015.6
20260503215052 67 213 7.0 7.8 0.00 0.00 0.00 39 1015.6
20260503214550 66 220 4.3 7.8 0.00 0.00 0.00 38 1015.8
20260503214046 66 198 5.2 7.0 0.00 0.00 0.00 39 1015.8
20260503213545 66 227 5.2 5.2 0.00 0.00 0.00 38 1015.9
20260503213041 66 212 7.0 8.7 0.00 0.00 0.00 38 1016.1
20260503212539 66 219 3.5 5.2 0.00 0.00 0.00 39 1016.1
20260503212036 66 217 6.1 7.0 0.00 0.00 0.00 39 1015.9
20260503211533 66 218 0.9 1.7 0.00 0.00 0.00 38 1016.3
20260503211028 66 232 5.2 7.0 0.00 0.00 0.00 40 1016.4
20260503210525 65 218 4.3 6.1 0.00 0.00 0.00 42 1016.4
20260503210021 66 211 7.0 7.8 0.00 0.00 0.00 39 1016.4
20260503205518 66 205 0.9 1.7 0.00 0.00 0.00 41 1016.4
20260503205014 66 218 4.3 6.1 0.00 0.00 0.00 41 1016.7
20260503204512 65 242 4.3 6.1 0.00 0.00 0.00 39 1016.7
20260503204008 65 203 5.2 8.7 0.00 0.00 0.00 39 1016.8
20260503203506 65 229 5.2 6.1 0.00 0.00 0.00 39 1016.8
20260503203002 66 228 5.2 7.0 0.00 0.00 0.00 38 1017.0
20260503202500 66 209 4.3 6.1 0.00 0.00 0.00 40 1017.1
20260503201958 65 234 3.5 3.5 0.00 0.00 0.00 42 1017.1
20260503201456 66 213 9.6 13.0 0.00 0.00 0.00 39 1017.3
20260503200953 65 266 2.6 3.5 0.00 0.00 0.00 41 1017.2
20260503200449 65 213 13.0 14.8 0.00 0.00 0.00 38 1017.5
20260503195946 65 196 4.3 5.2 0.00 0.00 0.00 38 1017.7
20260503195443 65 172 4.3 6.1 0.00 0.00 0.00 40 1017.8
20260503194939 65 221 3.5 3.5 0.00 0.00 0.00 42 1018.0
20260503194437 64 214 5.2 6.1 0.00 0.00 0.00 41 1017.9
20260503193932 64 236 4.3 6.1 0.00 0.00 0.00 40 1018.2
20260503193428 64 222 5.2 6.1 0.00 0.00 0.00 41 1018.2
20260503192923 65 189 2.6 2.6 0.00 0.00 0.00 43 1018.7
20260503192420 65 185 1.7 2.6 0.00 0.00 0.00 43 1018.6
20260503191916 63 210 6.1 7.0 0.00 0.00 0.00 43 1018.8
20260503191414 64 162 5.2 6.1 0.00 0.00 0.00 42 1018.8
20260503190910 63 204 3.5 3.5 0.00 0.00 0.00 44 1018.9
20260503190407 64 226 4.3 6.1 0.00 0.00 0.00 44 1019.1
20260503185903 64 226 0.9 1.7 0.00 0.00 0.00 48 1019.1
20260503185400 63 202 5.2 7.8 0.00 0.00 0.00 43 1019.0
20260503184859 63 176 2.6 3.5 0.00 0.00 0.00 45 1019.1
20260503184356 63 217 3.5 3.5 0.00 0.00 0.00 42 1019.1
20260503183852 62 319 4.3 5.2 0.00 0.00 0.00 44 1019.2
20260503183349 62 196 6.1 7.0 0.00 0.00 0.00 44 1019.4
20260503182847 62 196 4.3 6.1 0.00 0.00 0.00 43 1019.4
20260503182346 61 195 1.7 1.7 0.00 0.00 0.00 41 1019.4
20260503181842 62 213 3.5 3.5 0.00 0.00 0.00 45 1019.3
20260503181339 62 142 3.5 6.1 0.00 0.00 0.00 44 1019.5
20260503180836 61 206 3.5 5.2 0.00 0.00 0.00 42 1019.5
20260503180334 61 207 6.1 7.8 0.00 0.00 0.00 43 1019.5
20260503175830 61 173 2.6 2.6 0.00 0.00 0.00 42 1019.5
20260503175328 61 196 3.5 5.2 0.00 0.00 0.00 42 1019.8
20260503174823 61 212 6.1 7.8 0.00 0.00 0.00 42 1019.8
20260503174322 61 214 1.7 5.2 0.00 0.00 0.00 44 1019.8
20260503173817 61 199 4.3 5.2 0.00 0.00 0.00 40 1019.9
20260503173314 61 209 2.6 3.5 0.00 0.00 0.00 40 1019.8
20260503172810 61 215 1.7 1.7 0.00 0.00 0.00 42 1019.9
20260503172308 61 124 1.7 2.6 0.00 0.00 0.00 47 1020.0
20260503171804 60 192 1.7 1.7 0.00 0.00 0.00 42 1020.2
20260503171301 60 208 2.6 3.5 0.00 0.00 0.00 46 1020.1
20260503170758 60 207 3.5 5.2 0.00 0.00 0.00 43 1020.0
20260503170254 60 207 5.2 7.8 0.00 0.00 0.00 43 1020.3
20260503160217 58 192 4.3 6.1 0.00 0.00 0.00 43 1021.0
20260503150647 56 173 5.2 7.0 0.00 0.00 0.00 51 1021.1
20260503150143 57 188 2.6 2.6 0.00 0.00 0.00 57 1021.3
20260503140107 54 200 1.7 1.7 0.00 0.00 0.00 67 1021.2
20260503131037 53 129 0.0 0.0 0.00 0.00 0.00 73 1021.1
20260503130534 53 159 0.0 0.0 0.00 0.00 0.00 78 1021.3
20260503110424 39 265 0.0 0.0 0.00 0.00 0.00 99 1020.0